Regional Weather Roundup
Issued by NWS

Home | Current Version | Previous Version | Graphics & Text | Print | Product List | Glossary On
Versions: 1 2 3 4 5 6 7 8 9 10 11 12 13 14 15 16 17 18 19 20 21 22 23 24 25 26 27 28 29 30 31 32 33 34 35 36 37 38 39 40 41 42 43 44 45 46 47 48 49 50
000
ASUS43 KLMK 111402
RWRKY
KENTUCKY REGIONAL WEATHER ROUNDUP
NATIONAL WEATHER SERVICE LOUISVILLE KY
1000 AM EDT FRI JUL 11 2014

NOTE "FAIR" INDICATES FEW OR NO CLOUDS BELOW 12,000 FEET
WITH NO SIGNIFICANT WEATHER AND/OR OBSTRUCTIONS TO VISIBILITY.

KYZ001>023-026-027-061>063-070>075-111500-
WESTERN AND SOUTH CENTRAL KENTUCKY

CITY           SKY/WX    TMP DP  RH WIND       PRES   REMARKS
PADUCAH        SUNNY     80  67  64 CALM      30.18R
HENDERSON      SUNNY     73  64  73 E3        30.19S
OWENSBORO      SUNNY     75  61  62 CALM      30.20S
HOPKINSVILLE   SUNNY     77  64  64 VRB3      30.19R
BOWLING GREEN  SUNNY     77  62  59 CALM      30.20R
GLASGOW        NOT AVBL
$$

KYZ024-025-028>034-038-045-046-053-111500-
NORTH CENTRAL KENTUCKY

CITY           SKY/WX    TMP DP  RH WIND       PRES   REMARKS
LOUISVILLE/SDF MOSUNNY   77  60  55 CALM      30.20S
LOUISVILLE/LOU MOSUNNY   78  59  51 VRB3      30.21S
FORT KNOX      SUNNY     72  62  69 E5        30.20S
$$

KYZ035>037-039>044-047>052-055>060-089>105-111500-
NORTHEAST KENTUCKY

CITY           SKY/WX    TMP DP  RH WIND       PRES   REMARKS
LEXINGTON      SUNNY     78  61  55 CALM      30.23R
COVINGTON      MOSUNNY   76  58  53 E5        30.23R
FRANKFORT      SUNNY     74  60  61 VRB3      30.21S
$$

KYZ054-064>069-076>088-106>120-111500-
SOUTHEAST KENTUCKY

CITY           SKY/WX    TMP DP  RH WIND       PRES   REMARKS
JACKSON        SUNNY     74  63  68 CALM      30.24R
LONDON         SUNNY     77  65  66 SE3       30.23R
SOMERSET       SUNNY     75  63  64 CALM      30.23S
MIDDLESBORO    MOSUNNY   67  64  87 CALM      30.24S
MONTICELLO     SUNNY     78  67  68 CALM      30.23R
$$




USA.gov is the U.S. government's official web portal to all federal, state and local government web resources and services.